Location: Sagn�
(15.2046°N, 12.7898°W)
Time: 12:13:10
(UTC+00:00)

Helios 1A Rocket - Pass Details

Date: 08 May 2021
Orbit: 562 x 586 km, 98.3° (Epoch: 14 June)

Event Time Altitude Azimuth Distance (km) Brightness Sun altitude
Exits shadow 21:03:25 37° 229° (SW) 915 4.0 -25.9°
Maximum altitude 21:04:13 41° 259° (W) 846 4.0 -26.0°
Drops below altitude 10° 21:08:07 10° 330° (NNW) 1,898 6.3 -26.9°
Sets 21:10:22 0° 338° (NNW) 2,800 7.2 -27.3°
